COSMOS 2251 DEB, 35647

Orbit data source: Space-Track

COSMOS 2251 DEB, 35647 is space debris in LEO originally from a launch on Wed, 16 Jun 1993 UTC launched from the Plesetsk Missile And Space Complex (PKMTR). The debris from Iridium 33, an American commercial communications satellite, has been tracked extensively since its accidental collision with the defunct Russian satellite Cosmos 2251 in 2009. This event, occurring at high speed in low Earth orbit (LEO), generated thousands of pieces of space debris, significantly increasing the risk of further collisions. The Iridium 33 debris cloud has impacted space traffic management and orbital debris mitigation strategies, making it a subject of ongoing study in space situational awareness.

Loading next visibility...
Identifier
35647, 1993-036ANN
Orbit
LEO
Country
Flag of CISCIS
Related business
Manufacturer
Unknown
Mission
Spacecraft
Bus & Motor
Unknown
Mass
Unknown
Launch date (UTC)
1993-06-16 (33 years ago)
Launch vehicle
Unknown
Launch site
Plesetsk Missile And Space Complex (PKMTR)
Object type
Payload
Rocket body
Debris
Shape & HBR
Unknown shape, 0.1 m
Radar Cross Section
Small (<0.1 m²)

Expand to show TLE details & history
Last TLE update: 1 week ago

TLE from 1 week ago
0 COSMOS 2251 DEB
1 35647U 93036ANN 26200.52196143  .00000619  00000-0  18446-3 0  9999
2 35647  74.0193 247.2039 0048764 295.9070  63.7065 14.44576279708224
Epoch: 2026-07-19T12:31Z
TLE epoch observation values (Epoch: 2026-07-19T12:31:37.467Z)
Latitude
-0.00003°
Longitude
121.97862°
Altitude
730.79 km
Speed
7.498 km/s
True Right ascension
16h 28m 48s
True Declination
0° 00' 00"
Sunlit
Object was in full shadow at epoch
Visualization orbit readout
Latitude
Unknown
Longitude
Unknown
Altitude
Unknown
Speed
Unknown
Apparent Right ascension
Unknown
Apparent Declination
Unknown
Sunlit
N/A
Visualization observer readout
Local Sidereal Time
00:48:57
Azimuth
Unknown
Elevation
Unknown
Doppler factor
Unknown
Orbital elements
Apogee altitude
775.75 km
Perigee altitude
706.318 km
Semi-major axis
7,119.171 km
Eccentricity
0.00488
Inclination
74.0193°
RAAN
247.2039°
Arg. of periapsis
295.907°
True anomaly
64.20883°
Mean anomaly
63.7065°
Eccentric anomaly
63.95753°
Mean motion
3.61326 °/min
Orbital period
99.63 mins
BSTAR
0.00018446
Loading maneuver chart data...
Computing Atmospheric mass density...

Documentation

Showing up to 5 results
|